COSMOS 2491 DEB, 57558

Orbit data source: Space-Track

COSMOS 2491 DEB, 57558 is space debris in LEO originally from a launch on Wed, 25 Dec 2013 UTC launched from the Plesetsk Missile And Space Complex (PKMTR). Debris objects in space refer to the collection of defunct objects orbiting the Earth. Examples of debris include non-operational satellites, rocket bodies, and fragments generated from explosions, collisions, or faulty payload assembly.

Loading next visibility...
Identifier
57558, 2013-076AV
Orbit
LEO
Country
Flag of CISCIS
Related business
Manufacturer
TsNIIKhM
Mission
Spacecraft
Bus & Motor
Unknown
Mass
Unknown
Launch date (UTC)
2013-12-25 (13 years ago)
Launch vehicle
Unknown
Launch site
Plesetsk Missile And Space Complex (PKMTR)
Object type
Payload
Rocket body
Debris
Shape & HBR
Unknown shape, 0.1 m
Radar Cross Section
Small (<0.1 m²)

Expand to show TLE details & history
Last TLE update: 4 weeks ago

TLE from 4 weeks ago
0 COSMOS 2491 DEB
1 57558U 13076AV  26229.94063781  .00000165  00000-0  10235-2 0  9991
2 57558  82.4682 120.4245 0072066   2.8211 357.3265 12.49168436149172
Epoch: 2026-08-17T22:34Z
TLE epoch observation values (Epoch: 2026-08-17T22:34:31.106Z)
Latitude
0.00002°
Longitude
175.4793°
Altitude
1,414.192 km
Speed
7.179 km/s
True Right ascension
08h 01m 41s
True Declination
0° 00' 00"
Sunlit
Object was in daylight at epoch
Visualization orbit readout
Latitude
Unknown
Longitude
Unknown
Altitude
Unknown
Speed
Unknown
Apparent Right ascension
Unknown
Apparent Declination
Unknown
Sunlit
N/A
Visualization observer readout
Local Sidereal Time
22:28:59
Azimuth
Unknown
Elevation
Unknown
Doppler factor
Unknown
Orbital elements
Apogee altitude
1,521.843 km
Perigee altitude
1,408.794 km
Semi-major axis
7,843.455 km
Eccentricity
0.00721
Inclination
82.4682°
RAAN
120.4245°
Arg. of periapsis
2.8211°
True anomaly
357.28763°
Mean anomaly
357.3265°
Eccentric anomaly
357.3071°
Mean motion
3.12451 °/min
Orbital period
115.22 mins
BSTAR
0.0010235
Loading maneuver chart data...
Computing Atmospheric mass density...
Loading historical data...
Loading historical data...
Loading historical data...
Loading historical data...
Loading historical data...
Loading historical data...
Loading historical data...

Documentation

Showing up to 5 results
|